N1371D KBOS-KACK

Flight info

Callsign N1371D
Flight time 0h 48m
Altitude VFR/035
Route
Aircraft C172/L-VGD/C

Departure

Time 2026-05-03 23:56
Airport Boston Logan International Airport (KBOS)

Arrival

Time 2026-05-04 00:44
Airport Nantucket Memorial Airport (KACK)
Time Latitude Longitude Altitude Speed Heading
2026-05-03 23:35 42.37451 -71.02134 20 ft 0 kts 314°
2026-05-03 23:40 42.37453 -71.02137 20 ft 2 kts 307°
2026-05-03 23:40 42.37481 -71.02155 20 ft 5 kts 360°
2026-05-03 23:40 42.37506 -71.02144 20 ft 3 kts 33°
2026-05-03 23:40 42.37522 -71.02115 20 ft 7 kts 76°
2026-05-03 23:41 42.37480 -71.02058 20 ft 9 kts 152°
2026-05-03 23:41 42.37436 -71.02009 20 ft 10 kts 129°
2026-05-03 23:41 42.37382 -71.01935 20 ft 11 kts 134°
2026-05-03 23:41 42.37328 -71.01861 20 ft 12 kts 130°
2026-05-03 23:42 42.37255 -71.01768 20 ft 16 kts 132°
2026-05-03 23:42 42.37181 -71.01671 20 ft 14 kts 134°
2026-05-03 23:42 42.37114 -71.01579 20 ft 13 kts 136°
2026-05-03 23:42 42.37055 -71.01493 20 ft 12 kts 140°
2026-05-03 23:43 42.36996 -71.01421 20 ft 11 kts 133°
2026-05-03 23:43 42.36945 -71.01351 20 ft 10 kts 136°
2026-05-03 23:43 42.36893 -71.01287 20 ft 10 kts 137°
2026-05-03 23:43 42.36844 -71.01218 20 ft 10 kts 137°
2026-05-03 23:44 42.36795 -71.01156 20 ft 10 kts 146°
2026-05-03 23:44 42.36720 -71.01153 20 ft 11 kts 192°
2026-05-03 23:44 42.36651 -71.01182 20 ft 10 kts 196°
2026-05-03 23:44 42.36590 -71.01210 20 ft 10 kts 203°
2026-05-03 23:45 42.36520 -71.01245 20 ft 10 kts 203°
2026-05-03 23:45 42.36458 -71.01273 20 ft 9 kts 201°
2026-05-03 23:45 42.36407 -71.01302 20 ft 7 kts 207°
2026-05-03 23:45 42.36366 -71.01319 20 ft 5 kts 189°
2026-05-03 23:46 42.36331 -71.01315 20 ft 6 kts 141°
2026-05-03 23:46 42.36316 -71.01263 20 ft 7 kts 118°
2026-05-03 23:46 42.36280 -71.01185 20 ft 11 kts 124°
2026-05-03 23:46 42.36247 -71.01098 20 ft 10 kts 114°
2026-05-03 23:47 42.36220 -71.01016 20 ft 9 kts 110°
2026-05-03 23:47 42.36194 -71.00935 20 ft 9 kts 116°
2026-05-03 23:47 42.36167 -71.00858 20 ft 9 kts 115°
2026-05-03 23:47 42.36141 -71.00782 21 ft 9 kts 117°
2026-05-03 23:48 42.36117 -71.00702 21 ft 8 kts 107°
2026-05-03 23:48 42.36102 -71.00624 21 ft 9 kts 104°
2026-05-03 23:48 42.36084 -71.00548 21 ft 8 kts 106°
2026-05-03 23:48 42.36064 -71.00474 20 ft 8 kts 113°
2026-05-03 23:49 42.36044 -71.00397 20 ft 9 kts 107°
2026-05-03 23:49 42.36022 -71.00324 20 ft 8 kts 110°
2026-05-03 23:49 42.36005 -71.00242 20 ft 10 kts 110°
2026-05-03 23:49 42.35979 -71.00159 20 ft 10 kts 111°
2026-05-03 23:50 42.35947 -71.00085 20 ft 9 kts 135°
2026-05-03 23:50 42.35917 -71.00045 20 ft 9 kts 126°
2026-05-03 23:50 42.35857 -70.99957 20 ft 12 kts 130°
2026-05-03 23:50 42.35792 -70.99865 20 ft 14 kts 135°
2026-05-03 23:51 42.35728 -70.99778 20 ft 13 kts 134°
2026-05-03 23:51 42.35669 -70.99694 20 ft 12 kts 133°
2026-05-03 23:51 42.35614 -70.99616 20 ft 11 kts 130°
2026-05-03 23:51 42.35578 -70.99556 20 ft 8 kts 115°
2026-05-03 23:52 42.35591 -70.99500 20 ft 0 kts 50°
2026-05-03 23:55 42.35601 -70.99489 20 ft 6 kts 40°
2026-05-03 23:55 42.35657 -70.99453 20 ft 12 kts
2026-05-03 23:55 42.35742 -70.99516 20 ft 22 kts 312°
2026-05-03 23:55 42.35967 -70.99811 35 ft 65 kts 317°
2026-05-03 23:56 42.36321 -71.00194 313 ft 61 kts 312°
2026-05-03 23:56 42.36672 -71.00622 519 ft 73 kts 313°
2026-05-03 23:56 42.37050 -71.01053 796 ft 72 kts 314°
2026-05-03 23:56 42.37406 -71.01484 1062 ft 67 kts 313°
2026-05-03 23:57 42.37696 -71.01939 1297 ft 62 kts 285°
2026-05-03 23:57 42.37427 -71.02409 1483 ft 81 kts 210°
2026-05-03 23:57 42.36832 -71.02215 1600 ft 102 kts 136°
2026-05-03 23:57 42.36409 -71.01428 1729 ft 103 kts 122°
2026-05-03 23:58 42.36030 -71.00612 1786 ft 106 kts 121°
2026-05-03 23:58 42.35652 -70.99783 1916 ft 101 kts 124°
2026-05-03 23:58 42.35237 -70.98956 1931 ft 111 kts 128°
2026-05-03 23:58 42.34722 -70.98144 1962 ft 116 kts 131°
2026-05-03 23:59 42.34184 -70.97278 2108 ft 125 kts 131°
2026-05-03 23:59 42.33614 -70.96361 2235 ft 130 kts 131°
2026-05-03 23:59 42.33031 -70.95419 2376 ft 132 kts 131°
2026-05-03 23:59 42.32432 -70.94448 2506 ft 134 kts 131°
2026-05-04 00:00 42.31840 -70.93490 2638 ft 135 kts 131°
2026-05-04 00:00 42.31232 -70.92511 2770 ft 135 kts 131°
2026-05-04 00:00 42.30631 -70.91547 2888 ft 135 kts 131°
2026-05-04 00:00 42.30016 -70.90565 3026 ft 136 kts 131°
2026-05-04 00:01 42.29416 -70.89596 3155 ft 136 kts 131°
2026-05-04 00:01 42.28804 -70.88606 3280 ft 136 kts 131°
2026-05-04 00:01 42.28195 -70.87617 3416 ft 137 kts 131°
2026-05-04 00:01 42.27593 -70.86639 3542 ft 137 kts 131°
2026-05-04 00:02 42.26981 -70.85642 3672 ft 137 kts 131°
2026-05-04 00:02 42.26372 -70.84647 3816 ft 138 kts 131°
2026-05-04 00:02 42.25768 -70.83659 3939 ft 138 kts 131°
2026-05-04 00:02 42.25153 -70.82655 4070 ft 138 kts 131°
2026-05-04 00:03 42.24544 -70.81658 4196 ft 138 kts 131°
2026-05-04 00:03 42.23936 -70.80662 4324 ft 136 kts 132°
2026-05-04 00:03 42.23365 -70.79704 4464 ft 131 kts 131°
2026-05-04 00:03 42.22762 -70.78716 4510 ft 141 kts 131°
2026-05-04 00:04 42.22126 -70.77668 4518 ft 148 kts 131°
2026-05-04 00:04 42.21460 -70.76574 4517 ft 152 kts 131°
2026-05-04 00:04 42.20782 -70.75461 4527 ft 154 kts 131°
2026-05-04 00:04 42.20105 -70.74350 4525 ft 155 kts 131°
2026-05-04 00:05 42.19423 -70.73230 4518 ft 155 kts 131°
2026-05-04 00:05 42.18736 -70.72102 4524 ft 154 kts 131°
2026-05-04 00:05 42.18026 -70.71045 4520 ft 153 kts 140°
2026-05-04 00:05 42.17226 -70.70109 4522 ft 150 kts 143°
2026-05-04 00:06 42.16453 -70.69204 4519 ft 147 kts 143°
2026-05-04 00:06 42.15649 -70.68381 4514 ft 142 kts 155°
2026-05-04 00:06 42.14794 -70.67735 4510 ft 141 kts 156°
2026-05-04 00:06 42.14288 -70.67351 4511 ft 141 kts 156°
2026-05-04 00:07 42.13824 -70.66996 4510 ft 141 kts 156°
2026-05-04 00:07 42.12968 -70.66342 4514 ft 141 kts 156°
2026-05-04 00:07 42.12115 -70.65700 4513 ft 141 kts 156°
2026-05-04 00:07 42.11678 -70.65373 4514 ft 141 kts 157°
2026-05-04 00:08 42.11252 -70.65049 4510 ft 140 kts 156°
2026-05-04 00:08 42.10404 -70.64397 4515 ft 140 kts 156°
2026-05-04 00:08 42.09565 -70.63753 4513 ft 140 kts 156°
2026-05-04 00:09 42.08713 -70.63101 4516 ft 141 kts 156°
2026-05-04 00:09 42.07860 -70.62437 4515 ft 142 kts 156°
2026-05-04 00:09 42.07011 -70.61784 4513 ft 142 kts 156°
2026-05-04 00:09 42.06159 -70.61136 4515 ft 141 kts 158°
2026-05-04 00:10 42.05271 -70.60574 4513 ft 140 kts 162°
2026-05-04 00:10 42.04387 -70.60031 4515 ft 140 kts 162°
2026-05-04 00:10 42.03499 -70.59476 4512 ft 140 kts 162°
2026-05-04 00:10 42.02622 -70.58922 4510 ft 141 kts 162°
2026-05-04 00:11 42.01731 -70.58361 4511 ft 141 kts 162°
2026-05-04 00:11 42.00838 -70.57801 4513 ft 141 kts 162°
2026-05-04 00:11 41.99950 -70.57253 4508 ft 141 kts 162°
2026-05-04 00:11 41.99082 -70.56710 4504 ft 134 kts 162°
2026-05-04 00:12 41.98266 -70.56188 4502 ft 129 kts 162°
2026-05-04 00:12 41.97466 -70.55669 4498 ft 125 kts 162°
2026-05-04 00:12 41.96686 -70.55153 4507 ft 124 kts 162°
2026-05-04 00:12 41.95917 -70.54643 4508 ft 123 kts 161°
2026-05-04 00:13 41.95151 -70.54139 4500 ft 122 kts 162°
2026-05-04 00:13 41.94395 -70.53639 4503 ft 122 kts 161°
2026-05-04 00:13 41.93632 -70.53131 4505 ft 122 kts 161°
2026-05-04 00:13 41.92876 -70.52634 4506 ft 122 kts 161°
2026-05-04 00:14 41.92109 -70.52128 4501 ft 123 kts 162°
2026-05-04 00:14 41.91343 -70.51614 4502 ft 123 kts 161°
2026-05-04 00:14 41.90577 -70.51102 4499 ft 122 kts 161°
2026-05-04 00:14 41.89819 -70.50596 4499 ft 121 kts 162°
2026-05-04 00:15 41.89075 -70.50091 4497 ft 121 kts 161°
2026-05-04 00:15 41.88324 -70.49586 4497 ft 120 kts 161°
2026-05-04 00:15 41.87573 -70.49080 4499 ft 121 kts 161°
2026-05-04 00:15 41.86828 -70.48571 4500 ft 121 kts 161°
2026-05-04 00:16 41.86073 -70.48065 4499 ft 122 kts 161°
2026-05-04 00:16 41.85318 -70.47558 4499 ft 122 kts 161°
2026-05-04 00:16 41.84557 -70.47041 4509 ft 122 kts 161°
2026-05-04 00:16 41.83807 -70.46530 4508 ft 121 kts 161°
2026-05-04 00:17 41.83048 -70.46011 4512 ft 122 kts 161°
2026-05-04 00:17 41.82304 -70.45496 4510 ft 122 kts 161°
2026-05-04 00:17 41.81551 -70.44972 4509 ft 122 kts 162°
2026-05-04 00:17 41.80803 -70.44420 4510 ft 122 kts 159°
2026-05-04 00:18 41.80057 -70.43868 4505 ft 123 kts 159°
2026-05-04 00:18 41.79317 -70.43315 4507 ft 122 kts 159°
2026-05-04 00:18 41.78587 -70.42770 4502 ft 121 kts 159°
2026-05-04 00:18 41.77852 -70.42221 4503 ft 120 kts 159°
2026-05-04 00:19 41.77127 -70.41678 4503 ft 120 kts 159°
2026-05-04 00:19 41.76400 -70.41132 4507 ft 120 kts 159°
2026-05-04 00:19 41.75676 -70.40589 4481 ft 120 kts 159°
2026-05-04 00:19 41.74945 -70.40039 4482 ft 120 kts 159°
2026-05-04 00:20 41.74218 -70.39493 4485 ft 121 kts 159°
2026-05-04 00:20 41.73475 -70.38936 4490 ft 122 kts 159°
2026-05-04 00:20 41.72736 -70.38387 4489 ft 124 kts 159°
2026-05-04 00:20 41.71969 -70.37817 4494 ft 126 kts 158°
2026-05-04 00:21 41.71206 -70.37252 4495 ft 127 kts 158°
2026-05-04 00:21 41.70426 -70.36681 4495 ft 128 kts 158°
2026-05-04 00:21 41.69636 -70.36104 4500 ft 129 kts 159°
2026-05-04 00:21 41.68843 -70.35514 4497 ft 131 kts 158°
2026-05-04 00:22 41.68051 -70.34932 4498 ft 131 kts 158°
2026-05-04 00:22 41.67249 -70.34349 4501 ft 131 kts 159°
2026-05-04 00:22 41.66462 -70.33767 4499 ft 130 kts 158°
2026-05-04 00:22 41.65670 -70.33173 4499 ft 130 kts 156°
2026-05-04 00:23 41.64902 -70.32498 4496 ft 132 kts 152°
2026-05-04 00:23 41.64148 -70.31827 4496 ft 132 kts 152°
2026-05-04 00:23 41.63381 -70.31140 4493 ft 132 kts 152°
2026-05-04 00:23 41.62604 -70.30442 4392 ft 140 kts 152°
2026-05-04 00:24 41.61793 -70.29719 4262 ft 138 kts 152°
2026-05-04 00:24 41.61000 -70.29010 4131 ft 137 kts 152°
2026-05-04 00:24 41.60218 -70.28305 4001 ft 136 kts 152°
2026-05-04 00:24 41.59433 -70.27599 3868 ft 135 kts 152°
2026-05-04 00:25 41.58660 -70.26903 3739 ft 134 kts 152°
2026-05-04 00:25 41.57882 -70.26201 3611 ft 134 kts 152°
2026-05-04 00:25 41.57114 -70.25503 3476 ft 132 kts 152°
2026-05-04 00:25 41.56363 -70.24821 3346 ft 130 kts 152°
2026-05-04 00:26 41.55615 -70.24137 3212 ft 129 kts 152°
2026-05-04 00:26 41.54884 -70.23465 3083 ft 128 kts 152°
2026-05-04 00:26 41.54137 -70.22817 2950 ft 126 kts 149°
2026-05-04 00:26 41.53456 -70.22147 2807 ft 120 kts 151°
2026-05-04 00:27 41.52743 -70.21637 2663 ft 112 kts 168°
2026-05-04 00:27 41.52019 -70.21260 2533 ft 111 kts 168°
2026-05-04 00:27 41.51307 -70.20888 2397 ft 110 kts 168°
2026-05-04 00:27 41.50595 -70.20517 2265 ft 109 kts 168°
2026-05-04 00:28 41.49899 -70.20151 2134 ft 108 kts 168°
2026-05-04 00:28 41.49194 -70.19772 2008 ft 108 kts 168°
2026-05-04 00:28 41.48532 -70.19409 1992 ft 98 kts 168°
2026-05-04 00:28 41.47939 -70.19023 1987 ft 91 kts 161°
2026-05-04 00:29 41.47410 -70.18636 1943 ft 87 kts 159°
2026-05-04 00:29 41.46926 -70.18112 1865 ft 91 kts 141°
2026-05-04 00:29 41.46508 -70.17479 1777 ft 91 kts 133°
2026-05-04 00:29 41.46126 -70.16798 1703 ft 92 kts 125°
2026-05-04 00:30 41.45781 -70.16103 1660 ft 91 kts 127°
2026-05-04 00:30 41.45428 -70.15413 1637 ft 89 kts 127°
2026-05-04 00:30 41.45067 -70.14731 1621 ft 86 kts 126°
2026-05-04 00:30 41.44746 -70.14022 1585 ft 88 kts 122°
2026-05-04 00:31 41.44433 -70.13321 1556 ft 89 kts 124°
2026-05-04 00:31 41.44116 -70.12628 1521 ft 89 kts 126°
2026-05-04 00:31 41.43793 -70.11957 1495 ft 86 kts 126°
2026-05-04 00:31 41.43485 -70.11262 1463 ft 86 kts 123°
2026-05-04 00:32 41.43173 -70.10584 1430 ft 85 kts 127°
2026-05-04 00:32 41.42846 -70.09914 1385 ft 85 kts 127°
2026-05-04 00:32 41.42525 -70.09254 1345 ft 86 kts 128°
2026-05-04 00:32 41.42191 -70.08603 1311 ft 86 kts 130°
2026-05-04 00:33 41.41846 -70.07973 1288 ft 85 kts 133°
2026-05-04 00:33 41.41113 -70.06759 1259 ft 83 kts 137°
2026-05-04 00:33 41.40737 -70.06184 1255 ft 82 kts 139°
2026-05-04 00:34 41.40344 -70.05614 1249 ft 82 kts 140°
2026-05-04 00:34 41.39948 -70.05060 1240 ft 83 kts 141°
2026-05-04 00:34 41.39550 -70.04505 1244 ft 83 kts 141°
2026-05-04 00:34 41.39134 -70.03983 1251 ft 82 kts 148°
2026-05-04 00:35 41.38706 -70.03494 1240 ft 82 kts 147°
2026-05-04 00:35 41.38270 -70.03000 1234 ft 81 kts 149°
2026-05-04 00:35 41.37826 -70.02550 1221 ft 80 kts 153°
2026-05-04 00:35 41.37377 -70.02110 1236 ft 79 kts 151°
2026-05-04 00:36 41.36933 -70.01666 1238 ft 79 kts 156°
2026-05-04 00:36 41.36474 -70.01279 1245 ft 79 kts 158°
2026-05-04 00:36 41.36009 -70.00880 1258 ft 79 kts 158°
2026-05-04 00:36 41.35546 -70.00482 1268 ft 79 kts 158°
2026-05-04 00:37 41.35086 -70.00084 1288 ft 79 kts 156°
2026-05-04 00:37 41.34627 -69.99663 1313 ft 80 kts 153°
2026-05-04 00:37 41.34153 -69.99275 1337 ft 79 kts 165°
2026-05-04 00:37 41.33675 -69.98934 1360 ft 78 kts 166°
2026-05-04 00:38 41.33182 -69.98671 1388 ft 77 kts 171°
2026-05-04 00:38 41.32680 -69.98425 1416 ft 76 kts 179°
2026-05-04 00:38 41.32172 -69.98281 1430 ft 73 kts 190°
2026-05-04 00:38 41.31680 -69.98220 1442 ft 69 kts 200°
2026-05-04 00:39 41.31240 -69.98353 1429 ft 61 kts 223°
2026-05-04 00:39 41.30876 -69.98603 1426 ft 57 kts 230°
2026-05-04 00:39 41.30548 -69.98894 1423 ft 57 kts 238°
2026-05-04 00:39 41.30250 -69.99231 1419 ft 55 kts 240°
2026-05-04 00:40 41.29976 -69.99591 1411 ft 55 kts 246°
2026-05-04 00:40 41.29728 -69.99961 1417 ft 53 kts 249°
2026-05-04 00:40 41.29505 -70.00339 1387 ft 52 kts 252°
2026-05-04 00:40 41.29300 -70.00737 1328 ft 53 kts 250°
2026-05-04 00:41 41.29089 -70.01136 1280 ft 53 kts 250°
2026-05-04 00:41 41.28845 -70.01521 1229 ft 54 kts 243°
2026-05-04 00:41 41.28608 -70.01903 1179 ft 53 kts 247°
2026-05-04 00:41 41.28363 -70.02281 1126 ft 54 kts 240°
2026-05-04 00:42 41.28070 -70.02623 1033 ft 60 kts 240°
2026-05-04 00:42 41.27814 -70.02995 1036 ft 56 kts 244°
2026-05-04 00:42 41.27540 -70.03358 994 ft 59 kts 238°
2026-05-04 00:42 41.27258 -70.03733 943 ft 56 kts 242°
2026-05-04 00:43 41.27091 -70.04000 872 ft 57 kts 244°
2026-05-04 00:43 41.26823 -70.04423 748 ft 64 kts 236°
2026-05-04 00:43 41.26362 -70.04948 521 ft 65 kts 236°
2026-05-04 00:43 41.26174 -70.05259 404 ft 63 kts 239°
2026-05-04 00:44 41.25852 -70.05708 182 ft 70 kts 230°
2026-05-04 00:44 41.25518 -70.06164 49 ft 63 kts 223°
2026-05-04 00:44 41.25245 -70.06521 37 ft 49 kts 226°
2026-05-04 00:44 41.25063 -70.06767 34 ft 21 kts 225°
2026-05-04 00:45 41.24967 -70.06895 36 ft 20 kts 224°
2026-05-04 00:45 41.24857 -70.07042 33 ft 24 kts 225°
2026-05-04 00:45 41.24779 -70.07144 33 ft 12 kts 223°
2026-05-04 00:45 41.24731 -70.07242 29 ft 14 kts 266°
2026-05-04 00:46 41.24770 -70.07332 28 ft 10 kts 341°
2026-05-04 00:46 41.24822 -70.07293 31 ft 10 kts 45°
2026-05-04 00:46 41.24874 -70.07223 33 ft 12 kts 45°
2026-05-04 00:46 41.24945 -70.07128 33 ft 17 kts 45°
2026-05-04 00:47 41.25035 -70.07010 36 ft 19 kts 44°
2026-05-04 00:47 41.25140 -70.06869 35 ft 24 kts 45°
2026-05-04 00:47 41.25250 -70.06724 37 ft 20 kts 44°
2026-05-04 00:47 41.25346 -70.06600 39 ft 17 kts 46°
2026-05-04 00:48 41.25396 -70.06530 42 ft 10 kts 45°
2026-05-04 00:48 41.25455 -70.06501 43 ft 8 kts 354°
2026-05-04 00:48 41.25503 -70.06452 43 ft 11 kts 43°
2026-05-04 00:48 41.25565 -70.06373 45 ft 13 kts 44°
2026-05-04 00:49 41.25586 -70.06351 46 ft 0 kts 11°
2026-05-04 00:49 41.25603 -70.06358 46 ft 3 kts 314°
2026-05-04 00:49 41.25626 -70.06401 46 ft 0 kts 313°